When you browse on this site, cookies collect data to enhance your experience and personalize the content and advertising you see.
Visit our Privacy Policy to learn more. By continuing to use the site, you agree to this use of cookies and data.
  • In Austria
  • List of Countries
  • For 7 days
  • Water Temperature
  • Weather Map
  • News
  • Weather Widgets
  • user-avatar
    Login

    Hourly Weather San Juan

    Today, 9 December, Monday

    Time Temperature Precipitation Wind Pressure Humidity
    00:00 +29°C° 0 mm 3 mps 705 mmHg 31%
    01:00 +28°C° 0 mm 3 mps 705 mmHg 32%
    02:00 +28°C° 0 mm 3 mps 705 mmHg 33%
    03:00 +27°C° 0 mm 3 mps 705 mmHg 35%
    04:00 +26°C° 0 mm 3 mps 705 mmHg 36%
    05:00 +28°C° 0.2 mm 3 mps 705 mmHg 34%
    06:00 +29°C° 0.2 mm 3 mps 706 mmHg 31%
    07:00 +30°C° 0.2 mm 3 mps 706 mmHg 29%
    08:00 +32°C° 0 mm 4 mps 706 mmHg 26%
    09:00 +34°C° 0 mm 4 mps 706 mmHg 23%
    10:00 +35°C° 0 mm 4 mps 705 mmHg 20%
    11:00 +36°C° 0 mm 5 mps 705 mmHg 19%
    12:00 +37°C° 0 mm 5 mps 704 mmHg 17%
    13:00 +39°C° 0 mm 5 mps 703 mmHg 16%
    14:00 +39°C° 0 mm 5 mps 703 mmHg 16%
    15:00 +39°C° 0 mm 5 mps 702 mmHg 15%
    16:00 +39°C° 0 mm 5 mps 702 mmHg 15%
    17:00 +37°C° 0.1 mm 4 mps 702 mmHg 17%
    18:00 +35°C° 0.1 mm 3 mps 703 mmHg 20%
    19:00 +34°C° 0.1 mm 2 mps 703 mmHg 22%
    20:00 +32°C° 0.1 mm 2 mps 703 mmHg 24%
    21:00 +32°C° 0.1 mm 2 mps 704 mmHg 25%
    22:00 +31°C° 0.1 mm 3 mps 704 mmHg 26%
    23:00 +31°C° 0 mm 3 mps 704 mmHg 26%

    Tomorrow, 10 December, Tuesday

    Time Temperature Precipitation Wind Pressure Humidity
    00:00 +30°C° 0 mm 3 mps 703 mmHg 26%
    01:00 +30°C° 0 mm 4 mps 703 mmHg 27%
    02:00 +29°C° 0 mm 3 mps 703 mmHg 28%
    03:00 +28°C° 0 mm 3 mps 703 mmHg 30%
    04:00 +28°C° 0 mm 2 mps 703 mmHg 31%
    05:00 +30°C° 0 mm 2 mps 704 mmHg 28%
    06:00 +31°C° 0 mm 2 mps 704 mmHg 26%
    07:00 +34°C° 0 mm 2 mps 705 mmHg 23%
    08:00 +35°C° 0 mm 3 mps 705 mmHg 21%
    09:00 +36°C° 0 mm 4 mps 705 mmHg 19%
    10:00 +37°C° 0 mm 4 mps 705 mmHg 18%
    11:00 +38°C° 0 mm 4 mps 704 mmHg 17%
    12:00 +38°C° 0 mm 3 mps 703 mmHg 16%
    13:00 +39°C° 0 mm 2 mps 703 mmHg 15%
    14:00 +39°C° 0 mm 3 mps 702 mmHg 15%
    15:00 +39°C° 0 mm 3 mps 702 mmHg 14%
    16:00 +40°C° 0 mm 3 mps 701 mmHg 14%
    17:00 +39°C° 0 mm 3 mps 701 mmHg 15%
    18:00 +38°C° 0 mm 3 mps 702 mmHg 16%
    19:00 +37°C° 0 mm 3 mps 702 mmHg 17%
    20:00 +36°C° 0 mm 2 mps 702 mmHg 18%
    21:00 +35°C° 0 mm 2 mps 702 mmHg 20%
    22:00 +34°C° 0 mm 2 mps 703 mmHg 21%
    23:00 +34°C° 0 mm 2 mps 702 mmHg 23%

    Day after tomorrow, 11 December, Wednesday

    Time Temperature Precipitation Wind Pressure Humidity
    00:00 +32°C° 0 mm 2 mps 702 mmHg 24%
    01:00 +31°C° 0 mm 2 mps 701 mmHg 25%
    02:00 +31°C° 0 mm 2 mps 701 mmHg 27%
    03:00 +30°C° 0 mm 2 mps 701 mmHg 29%
    04:00 +29°C° 0 mm 1 mps 700 mmHg 31%
    05:00 +31°C° 0 mm 3 mps 701 mmHg 28%
    06:00 +33°C° 0 mm 5 mps 701 mmHg 25%
    07:00 +34°C° 0 mm 7 mps 701 mmHg 22%
    08:00 +34°C° 0 mm 8 mps 701 mmHg 20%
    09:00 +35°C° 0 mm 8 mps 701 mmHg 19%
    10:00 +37°C° 0 mm 9 mps 701 mmHg 17%
    11:00 +37°C° 0 mm 9 mps 701 mmHg 16%
    12:00 +38°C° 0 mm 9 mps 700 mmHg 15%
    13:00 +39°C° 0 mm 9 mps 700 mmHg 14%
    14:00 +39°C° 0 mm 9 mps 700 mmHg 14%
    15:00 +39°C° 0 mm 9 mps 699 mmHg 14%
    16:00 +39°C° 0 mm 9 mps 699 mmHg 13%
    17:00 +38°C° 0 mm 8 mps 700 mmHg 16%
    18:00 +36°C° 0 mm 7 mps 700 mmHg 18%
    19:00 +34°C° 0 mm 6 mps 701 mmHg 20%
    20:00 +34°C° 0 mm 6 mps 702 mmHg 22%
    21:00 +33°C° 0 mm 6 mps 702 mmHg 24%
    22:00 +32°C° 0 mm 6 mps 703 mmHg 26%
    23:00 +30°C° 0 mm 6 mps 703 mmHg 28%

    12 December, Thursday

    Time Temperature Precipitation Wind Pressure Humidity
    00:00 +30°C° 0 mm 6 mps 704 mmHg 29%
    01:00 +29°C° 0 mm 6 mps 704 mmHg 31%
    02:00 +27°C° 0 mm 7 mps 704 mmHg 28%
    03:00 +26°C° 0 mm 8 mps 705 mmHg 26%
    04:00 +23°C° 0 mm 9 mps 705 mmHg 23%
    05:00 +23°C° 0 mm 10 mps 705 mmHg 21%
    06:00 +23°C° 0 mm 10 mps 706 mmHg 20%
    07:00 +23°C° 0 mm 10 mps 706 mmHg 18%
    08:00 +24°C° 0 mm 9 mps 706 mmHg 17%
    09:00 +26°C° 0 mm 8 mps 706 mmHg 16%
    10:00 +27°C° 0 mm 7 mps 706 mmHg 14%
    11:00 +27°C° 0 mm 7 mps 705 mmHg 14%
    12:00 +28°C° 0 mm 7 mps 705 mmHg 14%
    13:00 +29°C° 0 mm 7 mps 704 mmHg 14%
    14:00 +29°C° 0 mm 6 mps 704 mmHg 14%
    15:00 +29°C° 0 mm 6 mps 704 mmHg 14%
    16:00 +30°C° 0 mm 5 mps 703 mmHg 14%
    17:00 +29°C° 0 mm 5 mps 704 mmHg 14%
    18:00 +28°C° 0 mm 5 mps 704 mmHg 15%
    19:00 +27°C° 0 mm 4 mps 705 mmHg 16%
    20:00 +26°C° 0 mm 4 mps 705 mmHg 16%
    21:00 +25°C° 0 mm 3 mps 705 mmHg 17%
    22:00 +25°C° 0 mm 2 mps 706 mmHg 18%
    23:00 +24°C° 0 mm 2 mps 705 mmHg 19%

    13 December, Friday

    Time Temperature Precipitation Wind Pressure Humidity
    00:00 +24°C° 0 mm 2 mps 705 mmHg 20%
    01:00 +23°C° 0 mm 2 mps 704 mmHg 21%
    02:00 +21°C° 0 mm 2 mps 704 mmHg 22%
    03:00 +21°C° 0 mm 2 mps 704 mmHg 23%
    04:00 +20°C° 0 mm 2 mps 704 mmHg 24%
    05:00 +21°C° 0 mm 2 mps 704 mmHg 22%
    06:00 +24°C° 0 mm 2 mps 704 mmHg 20%
    07:00 +25°C° 0 mm 2 mps 704 mmHg 19%
    08:00 +27°C° 0 mm 3 mps 704 mmHg 17%
    09:00 +28°C° 0 mm 4 mps 704 mmHg 15%
    10:00 +30°C° 0 mm 4 mps 703 mmHg 14%
    11:00 +32°C° 0 mm 5 mps 703 mmHg 13%
    12:00 +34°C° 0 mm 5 mps 702 mmHg 12%
    13:00 +35°C° 0 mm 5 mps 702 mmHg 11%
    14:00 +35°C° 0 mm 4 mps 701 mmHg 11%
    15:00 +35°C° 0 mm 3 mps 701 mmHg 11%
    16:00 +35°C° 0 mm 3 mps 701 mmHg 11%
    17:00 +34°C° 0 mm 3 mps 701 mmHg 12%
    18:00 +32°C° 0 mm 2 mps 701 mmHg 14%
    19:00 +30°C° 0 mm 2 mps 702 mmHg 15%
    20:00 +29°C° 0 mm 2 mps 702 mmHg 16%
    21:00 +28°C° 0 mm 2 mps 702 mmHg 18%
    22:00 +28°C° 0 mm 2 mps 703 mmHg 19%
    23:00 +27°C° 0 mm 1 mps 703 mmHg 20%

    14 December, Saturday

    Time Temperature Precipitation Wind Pressure Humidity
    00:00 +26°C° 0 mm 1 mps 703 mmHg 21%
    01:00 +26°C° 0 mm 1 mps 703 mmHg 22%
    02:00 +25°C° 0 mm 3 mps 703 mmHg 23%
    03:00 +25°C° 0 mm 5 mps 703 mmHg 23%
    04:00 +24°C° 0 mm 6 mps 704 mmHg 24%
    05:00 +24°C° 0 mm 7 mps 704 mmHg 24%
    06:00 +26°C° 0 mm 8 mps 705 mmHg 25%
    07:00 +27°C° 0 mm 9 mps 705 mmHg 26%
    08:00 +28°C° 0 mm 8 mps 705 mmHg 24%
    09:00 +29°C° 0 mm 8 mps 705 mmHg 22%
    10:00 +32°C° 0 mm 8 mps 705 mmHg 21%
    11:00 +33°C° 0 mm 7 mps 705 mmHg 19%
    12:00 +34°C° 0 mm 6 mps 704 mmHg 18%
    13:00 +35°C° 0 mm 5 mps 703 mmHg 16%
    14:00 +35°C° 0 mm 4 mps 703 mmHg 16%
    15:00 +35°C° 0 mm 4 mps 703 mmHg 15%
    16:00 +36°C° 0 mm 4 mps 702 mmHg 14%
    17:00 +35°C° 0 mm 4 mps 703 mmHg 15%
    18:00 +34°C° 0 mm 4 mps 703 mmHg 16%
    19:00 +33°C° 0 mm 3 mps 704 mmHg 17%
    20:00 +31°C° 0 mm 3 mps 704 mmHg 18%
    21:00 +30°C° 0 mm 3 mps 705 mmHg 19%
    22:00 +29°C° 0 mm 3 mps 705 mmHg 20%
    23:00 +29°C° 0 mm 3 mps 705 mmHg 22%
    Show more